RYR496D LEZL-GCFV

Flight info

Callsign RYR496D
Flight time N/A
Altitude 33000
Route CLANA N857 KORNO UN857 TERTO
Aircraft B738/M-SDE2E3FGHIRWXY/LB1

Departure

Time 2026-05-04 17:20
Airport Seville Airport (LEZL)

Arrival

Time N/A
Airport Fuerteventura Airport (GCFV)
Time Latitude Longitude Altitude Speed Heading
2026-05-04 16:49 37.42268 -5.89613 96 ft 0 kts 83°
2026-05-04 17:13 37.42269 -5.89600 95 ft 9 kts 83°
2026-05-04 17:14 37.42242 -5.89497 93 ft 7 kts 134°
2026-05-04 17:14 37.42182 -5.89426 91 ft 6 kts 175°
2026-05-04 17:14 37.42103 -5.89496 91 ft 2 kts 184°
2026-05-04 17:15 37.42075 -5.89479 91 ft 3 kts 132°
2026-05-04 17:15 37.41999 -5.89379 91 ft 9 kts 134°
2026-05-04 17:16 37.41983 -5.89207 95 ft 25 kts 89°
2026-05-04 17:16 37.41984 -5.88504 96 ft 22 kts 89°
2026-05-04 17:17 37.41985 -5.88323 101 ft 18 kts 89°
2026-05-04 17:17 37.41987 -5.87695 108 ft 22 kts 89°
2026-05-04 17:18 37.41985 -5.87542 109 ft 12 kts 101°
2026-05-04 17:18 37.41891 -5.87424 111 ft 8 kts 180°
2026-05-04 17:19 37.41801 -5.87468 110 ft 6 kts 234°
2026-05-04 17:19 37.41800 -5.87583 107 ft 8 kts 268°
2026-05-04 17:20 37.41797 -5.88511 97 ft 115 kts 269°
2026-05-04 17:20 37.41790 -5.91022 279 ft 155 kts 274°
2026-05-04 17:20 37.41815 -5.92408 796 ft 163 kts 266°
2026-05-04 17:21 37.42276 -5.95320 1739 ft 185 kts 286°
2026-05-04 17:21 37.43026 -5.98703 2804 ft 216 kts 287°
2026-05-04 17:22 37.43584 -6.00511 3378 ft 229 kts 291°
2026-05-04 17:22 37.43919 -6.02517 4062 ft 241 kts 271°
2026-05-04 17:23 37.40367 -6.07030 5539 ft 288 kts 185°
2026-05-04 17:23 37.38424 -6.07011 6584 ft 282 kts 179°
2026-05-04 17:23 37.34483 -6.06741 8291 ft 286 kts 179°
2026-05-04 17:24 37.32518 -6.06595 9126 ft 286 kts 180°
2026-05-04 17:24 37.26984 -6.06177 11303 ft 294 kts 181°
2026-05-04 17:25 37.24913 -6.06015 12054 ft 298 kts 181°
2026-05-04 17:25 37.20754 -6.05692 13598 ft 305 kts 182°
2026-05-04 17:26 37.16487 -6.05516 15094 ft 308 kts 191°
2026-05-04 17:26 37.11126 -6.09227 17350 ft 298 kts 225°
2026-05-04 17:27 37.07966 -6.12600 18692 ft 305 kts 224°
2026-05-04 17:27 37.04673 -6.16042 19964 ft 312 kts 224°
2026-05-04 17:28 37.01327 -6.19530 21182 ft 317 kts 225°
2026-05-04 17:29 36.96225 -6.24961 22911 ft 324 kts 226°
2026-05-04 17:29 36.91006 -6.30494 24517 ft 332 kts 226°
2026-05-04 17:30 36.85710 -6.36093 26072 ft 336 kts 226°
2026-05-04 17:31 36.82112 -6.39894 27001 ft 340 kts 226°
2026-05-04 17:31 36.76666 -6.45636 28259 ft 347 kts 227°
2026-05-04 17:32 36.72956 -6.49546 29102 ft 350 kts 227°
2026-05-04 17:33 36.67377 -6.55410 30343 ft 352 kts 227°
2026-05-04 17:33 36.65485 -6.57397 30629 ft 356 kts 227°
2026-05-04 17:34 36.59797 -6.63362 31663 ft 360 kts 227°
2026-05-04 17:34 36.57879 -6.65370 32091 ft 359 kts 226°
2026-05-04 17:35 36.52025 -6.71491 33026 ft 366 kts 226°
2026-05-04 17:35 36.48091 -6.75578 33631 ft 370 kts 226°
2026-05-04 17:35 36.46109 -6.77618 34018 ft 370 kts 226°
2026-05-04 17:36 36.44123 -6.79659 34268 ft 372 kts 226°
2026-05-04 17:36 36.42128 -6.81715 34484 ft 375 kts 226°
2026-05-04 17:36 36.40140 -6.83763 34679 ft 378 kts 226°
2026-05-04 17:36 36.38117 -6.85839 35122 ft 374 kts 226°
2026-05-04 17:37 36.36086 -6.87922 35250 ft 379 kts 226°
2026-05-04 17:37 36.34048 -6.90017 35508 ft 379 kts 226°
2026-05-04 17:37 36.32014 -6.92106 35817 ft 379 kts 227°
2026-05-04 17:37 36.29974 -6.94204 36027 ft 382 kts 226°
2026-05-04 17:38 36.27938 -6.96296 36336 ft 382 kts 226°
2026-05-04 17:38 36.25887 -6.98391 36848 ft 378 kts 226°
2026-05-04 17:38 36.23848 -7.00471 37014 ft 382 kts 226°
2026-05-04 17:38 36.21832 -7.02531 37364 ft 380 kts 226°
2026-05-04 17:39 36.17763 -7.06685 38039 ft 377 kts 226°
2026-05-04 17:39 36.13710 -7.10808 38047 ft 376 kts 227°
2026-05-04 17:40 36.09668 -7.14919 38045 ft 376 kts 227°
2026-05-04 17:40 36.05653 -7.19010 38045 ft 375 kts 227°
2026-05-04 17:41 36.01630 -7.23116 38055 ft 375 kts 226°
2026-05-04 17:41 35.97615 -7.27183 38054 ft 376 kts 227°
2026-05-04 17:42 35.93560 -7.31295 38056 ft 375 kts 227°
2026-05-04 17:42 35.89523 -7.35384 38054 ft 374 kts 227°
2026-05-04 17:43 35.85479 -7.39473 38061 ft 374 kts 227°
2026-05-04 17:43 35.81451 -7.43535 38060 ft 375 kts 227°
2026-05-04 17:44 35.77400 -7.47588 38065 ft 374 kts 226°
2026-05-04 17:44 35.73354 -7.51615 38060 ft 373 kts 226°
2026-05-04 17:45 35.69313 -7.55635 38063 ft 375 kts 226°
2026-05-04 17:45 35.65273 -7.59659 38064 ft 374 kts 227°
2026-05-04 17:46 35.61229 -7.63672 38065 ft 373 kts 226°
2026-05-04 17:46 35.57169 -7.67687 38067 ft 375 kts 226°
2026-05-04 17:47 35.53085 -7.71734 38068 ft 375 kts 226°
2026-05-04 17:47 35.49015 -7.75765 38067 ft 374 kts 226°
2026-05-04 17:48 35.44977 -7.79765 38068 ft 374 kts 226°
2026-05-04 17:48 35.40925 -7.83768 38066 ft 373 kts 226°
2026-05-04 17:49 35.36887 -7.87780 38064 ft 375 kts 226°
2026-05-04 17:49 35.32854 -7.91830 38067 ft 374 kts 227°
2026-05-04 17:50 35.28824 -7.95871 38071 ft 374 kts 226°
2026-05-04 17:50 35.24741 -7.99940 38055 ft 374 kts 226°
2026-05-04 17:51 35.20710 -8.03948 38079 ft 374 kts 226°
2026-05-04 17:51 35.16666 -8.07969 38068 ft 373 kts 226°
2026-05-04 17:52 35.12637 -8.11958 38070 ft 374 kts 226°
2026-05-04 17:52 35.08589 -8.15969 38069 ft 375 kts 226°
2026-05-04 17:53 35.04528 -8.19983 38068 ft 376 kts 226°
2026-05-04 17:53 35.00486 -8.23988 38067 ft 374 kts 226°
2026-05-04 17:54 34.96462 -8.27973 38076 ft 374 kts 226°
2026-05-04 17:54 34.92408 -8.31980 38066 ft 375 kts 226°
2026-05-04 17:55 34.88334 -8.35994 38072 ft 375 kts 225°
2026-05-04 17:55 34.84313 -8.39939 38076 ft 372 kts 226°
2026-05-04 17:56 34.80248 -8.43947 38073 ft 375 kts 226°
2026-05-04 17:56 34.76170 -8.47956 38075 ft 375 kts 226°
2026-05-04 17:57 34.72100 -8.51933 38071 ft 373 kts 225°
2026-05-04 17:57 34.68036 -8.55905 38072 ft 375 kts 226°
2026-05-04 17:58 34.63993 -8.59876 38072 ft 373 kts 226°
2026-05-04 17:58 34.59944 -8.63831 38073 ft 374 kts 225°
2026-05-04 17:59 34.55856 -8.67801 38072 ft 376 kts 225°
2026-05-04 18:00 34.49754 -8.73740 38070 ft 374 kts 225°
2026-05-04 18:00 34.45701 -8.77674 38071 ft 373 kts 225°
2026-05-04 18:01 34.41620 -8.81625 38073 ft 376 kts 225°
2026-05-04 18:01 34.37523 -8.85561 38075 ft 375 kts 225°
2026-05-04 18:02 34.31408 -8.91428 38072 ft 375 kts 224°
2026-05-04 18:02 34.27276 -8.95389 38083 ft 374 kts 224°
2026-05-04 18:03 34.23215 -8.99285 38090 ft 373 kts 225°
2026-05-04 18:03 34.19134 -9.03193 38089 ft 375 kts 225°
2026-05-04 18:04 34.15035 -9.07104 38091 ft 372 kts 224°
2026-05-04 18:05 34.08887 -9.12962 38097 ft 375 kts 225°
2026-05-04 18:05 34.04815 -9.16842 38096 ft 374 kts 225°
2026-05-04 18:06 33.98671 -9.22672 38093 ft 373 kts 224°
2026-05-04 18:06 33.94548 -9.26593 38093 ft 375 kts 224°
2026-05-04 18:07 33.90434 -9.30500 38095 ft 376 kts 225°
2026-05-04 18:07 33.86330 -9.34395 38098 ft 378 kts 224°
2026-05-04 18:08 33.82180 -9.38319 38091 ft 377 kts 224°
2026-05-04 18:08 33.78073 -9.42195 38093 ft 377 kts 224°
2026-05-04 18:09 33.69807 -9.49978 38082 ft 376 kts 224°
2026-05-04 18:10 33.65691 -9.53855 38215 ft 377 kts 224°
2026-05-04 18:10 33.63607 -9.55816 38100 ft 377 kts 224°
2026-05-04 18:10 33.61567 -9.57736 38091 ft 374 kts 224°
2026-05-04 18:11 33.57442 -9.61609 38095 ft 377 kts 224°
2026-05-04 18:11 33.53304 -9.65489 38093 ft 377 kts 224°
2026-05-04 18:12 33.49155 -9.69371 38094 ft 379 kts 224°
2026-05-04 18:12 33.44997 -9.73258 38092 ft 378 kts 224°
2026-05-04 18:13 33.40855 -9.77121 38087 ft 376 kts 224°
2026-05-04 18:14 33.34618 -9.82936 38087 ft 377 kts 224°
2026-05-04 18:14 33.30464 -9.86799 38091 ft 379 kts 223°
2026-05-04 18:15 33.22142 -9.94538 38092 ft 378 kts 223°
2026-05-04 18:16 33.17941 -9.98434 38093 ft 380 kts 224°
2026-05-04 18:16 33.13780 -10.02300 38083 ft 379 kts 223°
2026-05-04 18:17 33.07503 -10.08101 38080 ft 379 kts 223°
2026-05-04 18:18 33.01262 -10.13853 38091 ft 379 kts 224°
2026-05-04 18:18 32.97077 -10.17718 38092 ft 379 kts 223°
2026-05-04 18:19 32.90849 -10.23441 38089 ft 377 kts 223°
2026-05-04 18:19 32.86673 -10.27265 38089 ft 376 kts 223°
2026-05-04 18:20 32.82538 -10.31055 38088 ft 375 kts 223°
2026-05-04 18:20 32.78406 -10.34847 38086 ft 376 kts 224°
2026-05-04 18:21 32.74280 -10.38629 38085 ft 374 kts 224°
2026-05-04 18:21 32.70121 -10.42424 38085 ft 375 kts 224°
2026-05-04 18:22 32.65973 -10.46164 38087 ft 375 kts 224°
2026-05-04 18:22 32.61839 -10.49933 38082 ft 373 kts 224°
2026-05-04 18:23 32.57748 -10.53672 38084 ft 373 kts 224°
2026-05-04 18:23 32.53646 -10.57419 38077 ft 373 kts 224°
2026-05-04 18:24 32.49505 -10.61174 38079 ft 371 kts 224°
2026-05-04 18:24 32.45438 -10.64857 38076 ft 371 kts 224°
2026-05-04 18:25 32.41298 -10.68612 38077 ft 372 kts 224°
2026-05-04 18:25 32.37187 -10.72338 38072 ft 369 kts 223°
2026-05-04 18:26 32.33100 -10.76029 38070 ft 369 kts 223°
2026-05-04 18:26 32.29004 -10.79724 38063 ft 368 kts 224°
2026-05-04 18:27 32.24947 -10.83374 38060 ft 364 kts 224°
2026-05-04 18:27 32.20901 -10.87026 38065 ft 369 kts 224°
2026-05-04 18:28 32.16826 -10.90690 38062 ft 365 kts 224°
2026-05-04 18:28 32.12784 -10.94322 38056 ft 366 kts 224°
2026-05-04 18:29 32.08722 -10.97964 38054 ft 365 kts 224°
2026-05-04 18:29 32.04629 -11.01629 38055 ft 365 kts 224°
2026-05-04 18:30 31.98554 -11.07072 38047 ft 363 kts 224°
2026-05-04 18:31 31.94527 -11.10687 38050 ft 364 kts 224°
2026-05-04 18:31 31.90458 -11.14300 38049 ft 364 kts 224°
2026-05-04 18:32 31.86418 -11.17895 38052 ft 364 kts 223°
2026-05-04 18:32 31.82377 -11.21506 38051 ft 364 kts 224°
2026-05-04 18:33 31.78351 -11.25094 38047 ft 363 kts 224°
2026-05-04 18:33 31.74317 -11.28661 38049 ft 361 kts 224°
2026-05-04 18:34 31.70276 -11.32254 38051 ft 365 kts 224°
2026-05-04 18:34 31.66257 -11.35860 38052 ft 362 kts 224°
2026-05-04 18:35 31.62258 -11.39437 38052 ft 362 kts 224°
2026-05-04 18:35 31.58243 -11.43023 38053 ft 363 kts 224°
2026-05-04 18:36 31.54204 -11.46604 38052 ft 362 kts 224°
2026-05-04 18:36 31.50212 -11.50135 38052 ft 361 kts 224°
2026-05-04 18:37 31.46177 -11.53712 38048 ft 360 kts 224°
2026-05-04 18:37 31.42196 -11.57241 38048 ft 359 kts 224°
2026-05-04 18:38 31.38214 -11.60759 38049 ft 359 kts 224°
2026-05-04 18:38 31.34221 -11.64309 38051 ft 360 kts 224°
2026-05-04 18:39 31.30237 -11.67850 38050 ft 359 kts 223°
2026-05-04 18:39 31.26224 -11.71349 38050 ft 360 kts 224°
2026-05-04 18:40 31.22225 -11.74861 38048 ft 357 kts 223°
2026-05-04 18:40 31.18256 -11.78354 38047 ft 357 kts 224°
2026-05-04 18:41 31.14262 -11.81863 38049 ft 358 kts 223°
2026-05-04 18:41 31.10282 -11.85347 38049 ft 357 kts 223°
2026-05-04 18:42 31.06298 -11.88844 38048 ft 357 kts 224°
2026-05-04 18:42 31.02349 -11.92303 38048 ft 355 kts 224°
2026-05-04 18:43 30.98388 -11.95774 38047 ft 355 kts 224°
2026-05-04 18:43 30.94426 -11.99249 38048 ft 357 kts 223°
2026-05-04 18:44 30.90419 -12.02746 38048 ft 357 kts 223°
2026-05-04 18:44 30.86434 -12.06211 38047 ft 358 kts 223°
2026-05-04 18:45 30.82420 -12.09704 38047 ft 357 kts 223°
2026-05-04 18:45 30.78425 -12.13180 38047 ft 358 kts 223°
2026-05-04 18:46 30.74408 -12.16672 38045 ft 357 kts 223°
2026-05-04 18:46 30.70434 -12.20121 38045 ft 357 kts 223°
2026-05-04 18:47 30.66445 -12.23575 38044 ft 356 kts 223°
2026-05-04 18:47 30.62453 -12.27032 38044 ft 358 kts 223°
2026-05-04 18:48 30.58471 -12.30487 38047 ft 355 kts 223°
2026-05-04 18:48 30.54472 -12.33961 38045 ft 358 kts 223°
2026-05-04 18:49 30.50469 -12.37420 38047 ft 358 kts 223°
2026-05-04 18:49 30.46470 -12.40851 38045 ft 357 kts 223°
2026-05-04 18:50 30.42441 -12.44301 38048 ft 358 kts 223°
2026-05-04 18:50 30.38455 -12.47724 38053 ft 357 kts 223°
2026-05-04 18:51 30.34432 -12.51186 38055 ft 357 kts 223°
2026-05-04 18:51 30.30410 -12.54630 38055 ft 357 kts 223°
2026-05-04 18:52 30.26382 -12.58075 38054 ft 357 kts 223°
2026-05-04 18:52 30.22386 -12.61486 38052 ft 356 kts 223°
2026-05-04 18:53 30.18370 -12.64917 38052 ft 357 kts 223°
2026-05-04 18:53 30.14342 -12.68346 38052 ft 357 kts 222°
2026-05-04 18:54 30.10318 -12.71728 38050 ft 357 kts 220°
2026-05-04 18:54 30.06030 -12.74666 38051 ft 361 kts 216°
2026-05-04 18:55 30.01578 -12.77431 38053 ft 360 kts 216°
2026-05-04 18:55 29.94918 -12.81627 38048 ft 359 kts 216°
2026-05-04 18:56 29.90473 -12.84459 38050 ft 363 kts 216°
2026-05-04 18:56 29.86033 -12.87283 38049 ft 362 kts 216°
2026-05-04 18:57 29.81610 -12.90099 38047 ft 362 kts 216°
2026-05-04 18:57 29.77191 -12.92912 38047 ft 362 kts 216°
2026-05-04 18:58 29.72790 -12.95706 38047 ft 361 kts 216°
2026-05-04 18:58 29.68367 -12.98525 38046 ft 360 kts 216°
2026-05-04 18:59 29.63978 -13.01306 38049 ft 360 kts 216°
2026-05-04 18:59 29.59551 -13.04112 38050 ft 361 kts 216°
2026-05-04 19:00 29.55133 -13.06916 38047 ft 361 kts 216°
2026-05-04 19:00 29.50727 -13.09702 38048 ft 362 kts 216°
2026-05-04 19:01 29.46303 -13.12499 38049 ft 363 kts 216°
2026-05-04 19:01 29.41868 -13.15304 38051 ft 362 kts 216°
2026-05-04 19:02 29.37415 -13.18110 38051 ft 363 kts 216°
2026-05-04 19:02 29.32930 -13.20783 38048 ft 363 kts 212°
2026-05-04 19:03 29.28347 -13.23247 38041 ft 364 kts 212°
2026-05-04 19:03 29.23748 -13.25720 37593 ft 365 kts 213°
2026-05-04 19:04 29.21436 -13.26983 36793 ft 364 kts 213°
2026-05-04 19:04 29.19164 -13.28225 35952 ft 364 kts 213°
2026-05-04 19:04 29.16893 -13.29466 35364 ft 359 kts 213°
2026-05-04 19:04 29.14663 -13.30681 34677 ft 356 kts 213°
2026-05-04 19:05 29.12409 -13.31909 33963 ft 354 kts 213°
2026-05-04 19:05 29.10231 -13.33099 33360 ft 350 kts 212°
2026-05-04 19:05 29.08033 -13.34302 32776 ft 346 kts 213°
2026-05-04 19:05 29.05858 -13.35494 32082 ft 346 kts 213°
2026-05-04 19:06 29.03697 -13.36677 31503 ft 342 kts 213°
2026-05-04 19:06 29.01566 -13.37839 30903 ft 340 kts 213°
2026-05-04 19:06 28.99453 -13.38994 30288 ft 337 kts 213°
2026-05-04 19:06 28.97343 -13.40150 29699 ft 335 kts 213°
2026-05-04 19:07 28.95260 -13.41289 29121 ft 332 kts 213°